THY7LB LTAY-LTFM

Flight info

Callsign THY7LB
Flight time 0h 52m
Altitude 34000
Route ATGIT UT30 OTSIX UM855 SISPI
Aircraft A320/M-SDE3FGHIRWY/LB1

Departure

Time 2026-05-06 00:01
Airport Çardak Airport (LTAY)

Arrival

Time 2026-05-06 00:53
Airport İstanbul Airport (LTFM)
Time Latitude Longitude Altitude Speed Heading
2026-05-05 23:48 37.77470 29.68944 2791 ft 0 kts 129°
2026-05-05 23:52 37.77479 29.68931 2786 ft 3 kts 129°
2026-05-05 23:52 37.77497 29.68907 2791 ft 4 kts 145°
2026-05-05 23:53 37.77517 29.68891 2794 ft 4 kts 108°
2026-05-05 23:53 37.77524 29.68903 2788 ft 0 kts 56°
2026-05-05 23:54 37.77532 29.68911 2788 ft 3 kts 37°
2026-05-05 23:55 37.77555 29.68910 2792 ft 5 kts 344°
2026-05-05 23:55 37.77594 29.68896 2793 ft 7 kts 340°
2026-05-05 23:55 37.77640 29.68857 2792 ft 9 kts 325°
2026-05-05 23:55 37.77699 29.68808 2793 ft 11 kts 331°
2026-05-05 23:56 37.77774 29.68756 2791 ft 13 kts 328°
2026-05-05 23:56 37.77858 29.68693 2794 ft 15 kts 328°
2026-05-05 23:56 37.77952 29.68617 2792 ft 16 kts 332°
2026-05-05 23:56 37.78040 29.68690 2791 ft 18 kts 58°
2026-05-05 23:57 37.78113 29.68839 2788 ft 22 kts 59°
2026-05-05 23:57 37.78193 29.69015 2785 ft 25 kts 58°
2026-05-05 23:57 37.78289 29.69209 2788 ft 27 kts 58°
2026-05-05 23:57 37.78391 29.69416 2786 ft 29 kts 58°
2026-05-05 23:58 37.78499 29.69640 2783 ft 31 kts 59°
2026-05-05 23:58 37.78616 29.69885 2782 ft 34 kts 59°
2026-05-05 23:58 37.78743 29.70151 2778 ft 36 kts 59°
2026-05-05 23:58 37.78875 29.70430 2777 ft 38 kts 59°
2026-05-05 23:59 37.79012 29.70718 2776 ft 39 kts 59°
2026-05-05 23:59 37.79156 29.71016 2772 ft 41 kts 58°
2026-05-05 23:59 37.79289 29.71292 2769 ft 29 kts 59°
2026-05-05 23:59 37.79363 29.71476 2769 ft 15 kts 97°
2026-05-06 00:00 37.79277 29.71549 2770 ft 16 kts 153°
2026-05-06 00:00 37.79205 29.71484 2768 ft 16 kts 240°
2026-05-06 00:00 37.79118 29.71299 2771 ft 51 kts 239°
2026-05-06 00:00 37.78827 29.70679 2778 ft 111 kts 239°
2026-05-06 00:01 37.78342 29.69664 2793 ft 155 kts 240°
2026-05-06 00:01 37.77811 29.68504 3334 ft 153 kts 239°
2026-05-06 00:01 37.77209 29.67285 3633 ft 174 kts 238°
2026-05-06 00:01 37.76527 29.65920 3978 ft 192 kts 238°
2026-05-06 00:02 37.75783 29.64420 4340 ft 213 kts 239°
2026-05-06 00:02 37.74994 29.62774 5036 ft 218 kts 242°
2026-05-06 00:02 37.74520 29.60990 5862 ft 216 kts 268°
2026-05-06 00:02 37.74761 29.59062 6376 ft 230 kts 289°
2026-05-06 00:03 37.75316 29.57143 7124 ft 235 kts 292°
2026-05-06 00:03 37.75919 29.55212 7942 ft 238 kts 294°
2026-05-06 00:03 37.76780 29.53437 8755 ft 239 kts 314°
2026-05-06 00:03 37.78119 29.52090 9251 ft 258 kts 332°
2026-05-06 00:04 37.79768 29.51021 9812 ft 272 kts 333°
2026-05-06 00:04 37.81488 29.49891 10270 ft 289 kts 332°
2026-05-06 00:04 37.83424 29.48885 10481 ft 313 kts 346°
2026-05-06 00:04 37.85660 29.48619 10746 ft 334 kts
2026-05-06 00:05 37.89351 29.50237 11813 ft 347 kts 29°
2026-05-06 00:05 37.92104 29.52429 12801 ft 351 kts 29°
2026-05-06 00:05 37.93474 29.53526 13285 ft 353 kts 29°
2026-05-06 00:06 37.95558 29.55196 13991 ft 357 kts 29°
2026-05-06 00:06 37.97668 29.56883 14606 ft 361 kts 29°
2026-05-06 00:06 37.99802 29.58589 15204 ft 364 kts 29°
2026-05-06 00:06 38.01957 29.60313 15795 ft 368 kts 29°
2026-05-06 00:07 38.04870 29.62645 16599 ft 372 kts 30°
2026-05-06 00:07 38.06325 29.63808 17000 ft 375 kts 30°
2026-05-06 00:07 38.08541 29.65583 17619 ft 378 kts 30°
2026-05-06 00:07 38.10778 29.67376 18245 ft 382 kts 30°
2026-05-06 00:08 38.13036 29.69187 18800 ft 386 kts 30°
2026-05-06 00:08 38.15318 29.71019 19371 ft 389 kts 30°
2026-05-06 00:08 38.17619 29.72863 19948 ft 393 kts 29°
2026-05-06 00:08 38.20039 29.74471 20509 ft 393 kts 20°
2026-05-06 00:09 38.22647 29.75526 21037 ft 395 kts 11°
2026-05-06 00:09 38.25357 29.76192 21529 ft 398 kts
2026-05-06 00:09 38.28086 29.76846 22016 ft 401 kts
2026-05-06 00:09 38.30838 29.77513 22499 ft 404 kts
2026-05-06 00:10 38.33609 29.78189 22973 ft 407 kts 10°
2026-05-06 00:10 38.36396 29.78874 23445 ft 409 kts 10°
2026-05-06 00:10 38.39204 29.79566 23855 ft 412 kts 10°
2026-05-06 00:10 38.42024 29.80262 24230 ft 414 kts 10°
2026-05-06 00:11 38.44826 29.80954 24613 ft 416 kts 10°
2026-05-06 00:11 38.47679 29.81655 24985 ft 418 kts 10°
2026-05-06 00:11 38.50540 29.82357 25357 ft 420 kts 10°
2026-05-06 00:11 38.53418 29.83066 25735 ft 422 kts 10°
2026-05-06 00:12 38.56313 29.83780 26103 ft 424 kts 10°
2026-05-06 00:12 38.59216 29.84495 26475 ft 426 kts 10°
2026-05-06 00:12 38.62133 29.85217 26874 ft 427 kts 10°
2026-05-06 00:12 38.65058 29.85942 27268 ft 429 kts 10°
2026-05-06 00:13 38.67994 29.86669 27628 ft 431 kts 10°
2026-05-06 00:13 38.70942 29.87399 27976 ft 432 kts
2026-05-06 00:13 38.73903 29.88129 28328 ft 434 kts
2026-05-06 00:13 38.76862 29.88861 28805 ft 433 kts
2026-05-06 00:14 38.79816 29.89595 29333 ft 431 kts
2026-05-06 00:14 38.82749 29.90327 29874 ft 429 kts
2026-05-06 00:14 38.85670 29.91057 30358 ft 427 kts
2026-05-06 00:14 38.88583 29.91783 30786 ft 426 kts
2026-05-06 00:15 38.91484 29.92505 31220 ft 424 kts
2026-05-06 00:15 38.94380 29.93224 31653 ft 423 kts
2026-05-06 00:15 38.97273 29.93942 32097 ft 422 kts
2026-05-06 00:15 39.00151 29.94656 32584 ft 420 kts
2026-05-06 00:16 39.03015 29.95369 33054 ft 418 kts
2026-05-06 00:16 39.05867 29.96082 33506 ft 417 kts
2026-05-06 00:16 39.08711 29.96796 33946 ft 416 kts
2026-05-06 00:16 39.11557 29.97513 34098 ft 418 kts
2026-05-06 00:17 39.14431 29.98238 34115 ft 423 kts
2026-05-06 00:17 39.20214 29.99696 34117 ft 423 kts
2026-05-06 00:18 39.25996 30.01157 34119 ft 423 kts
2026-05-06 00:18 39.31737 30.02607 34120 ft 423 kts
2026-05-06 00:19 39.37510 30.04068 34122 ft 422 kts
2026-05-06 00:19 39.43321 30.04928 34122 ft 420 kts 356°
2026-05-06 00:20 39.49057 30.03638 33902 ft 419 kts 347°
2026-05-06 00:20 39.51902 30.02787 33619 ft 420 kts 347°
2026-05-06 00:20 39.54752 30.01943 33356 ft 420 kts 347°
2026-05-06 00:20 39.57606 30.01104 33089 ft 420 kts 347°
2026-05-06 00:21 39.60461 30.00267 32829 ft 421 kts 347°
2026-05-06 00:21 39.63319 29.99424 32564 ft 422 kts 347°
2026-05-06 00:21 39.66183 29.98575 32311 ft 422 kts 347°
2026-05-06 00:21 39.69051 29.97727 32041 ft 423 kts 347°
2026-05-06 00:22 39.71922 29.96878 31788 ft 424 kts 347°
2026-05-06 00:22 39.74799 29.96017 31535 ft 424 kts 346°
2026-05-06 00:22 39.77609 29.94838 31002 ft 425 kts 339°
2026-05-06 00:22 39.80314 29.93350 29918 ft 430 kts 338°
2026-05-06 00:23 39.83068 29.91798 28794 ft 432 kts 338°
2026-05-06 00:23 39.85823 29.90223 27975 ft 429 kts 337°
2026-05-06 00:23 39.88506 29.88691 27814 ft 413 kts 338°
2026-05-06 00:23 39.91171 29.87518 27598 ft 398 kts 347°
2026-05-06 00:24 39.93872 29.87018 27329 ft 390 kts 357°
2026-05-06 00:24 39.96577 29.87000 27072 ft 388 kts 360°
2026-05-06 00:24 39.99269 29.87007 26818 ft 386 kts 359°
2026-05-06 00:24 40.01948 29.87002 26558 ft 384 kts 359°
2026-05-06 00:25 40.04618 29.86992 26354 ft 383 kts 359°
2026-05-06 00:25 40.07280 29.86978 26043 ft 382 kts 359°
2026-05-06 00:25 40.09935 29.86968 25690 ft 380 kts 359°
2026-05-06 00:25 40.12575 29.86964 25349 ft 379 kts 359°
2026-05-06 00:26 40.15206 29.86961 25007 ft 377 kts 359°
2026-05-06 00:26 40.17826 29.86958 24666 ft 376 kts 359°
2026-05-06 00:26 40.20436 29.86952 24331 ft 374 kts 359°
2026-05-06 00:26 40.23037 29.86945 23994 ft 373 kts 359°
2026-05-06 00:27 40.25627 29.86938 23651 ft 372 kts 359°
2026-05-06 00:27 40.28208 29.86935 23273 ft 370 kts 359°
2026-05-06 00:27 40.30782 29.86932 22945 ft 369 kts 359°
2026-05-06 00:27 40.33342 29.86930 22611 ft 367 kts 359°
2026-05-06 00:28 40.35889 29.86927 22283 ft 365 kts 359°
2026-05-06 00:28 40.38422 29.86986 21949 ft 364 kts
2026-05-06 00:28 40.40904 29.87599 21622 ft 363 kts 15°
2026-05-06 00:28 40.43233 29.88863 21291 ft 363 kts 27°
2026-05-06 00:29 40.45349 29.90678 20958 ft 363 kts 33°
2026-05-06 00:29 40.47398 29.92569 20704 ft 355 kts 33°
2026-05-06 00:29 40.49382 29.94397 20583 ft 342 kts 32°
2026-05-06 00:29 40.51403 29.95913 20452 ft 328 kts 20°
2026-05-06 00:30 40.53557 29.96743 20180 ft 320 kts
2026-05-06 00:30 40.55748 29.96919 19983 ft 314 kts 359°
2026-05-06 00:30 40.57931 29.96905 19738 ft 313 kts 360°
2026-05-06 00:30 40.60106 29.96900 19474 ft 312 kts 360°
2026-05-06 00:31 40.62270 29.96906 19211 ft 311 kts
2026-05-06 00:31 40.64426 29.96911 18947 ft 309 kts
2026-05-06 00:31 40.66573 29.96885 18684 ft 308 kts 355°
2026-05-06 00:31 40.68675 29.96375 18423 ft 307 kts 343°
2026-05-06 00:32 40.70690 29.95450 18134 ft 307 kts 342°
2026-05-06 00:32 40.72701 29.94516 17866 ft 306 kts 342°
2026-05-06 00:32 40.74705 29.93591 17599 ft 305 kts 342°
2026-05-06 00:32 40.76702 29.92670 17335 ft 304 kts 342°
2026-05-06 00:33 40.78691 29.91753 17078 ft 303 kts 342°
2026-05-06 00:33 40.80681 29.90838 16810 ft 302 kts 342°
2026-05-06 00:33 40.82659 29.89927 16552 ft 301 kts 341°
2026-05-06 00:33 40.84502 29.88640 16291 ft 302 kts 323°
2026-05-06 00:34 40.85910 29.86581 16035 ft 305 kts 304°
2026-05-06 00:34 40.86698 29.84007 15799 ft 310 kts 284°
2026-05-06 00:34 40.86827 29.81111 15543 ft 314 kts 273°
2026-05-06 00:34 40.86787 29.78262 15307 ft 314 kts 273°
2026-05-06 00:35 40.86745 29.75380 15062 ft 313 kts 273°
2026-05-06 00:35 40.86704 29.72506 14827 ft 312 kts 273°
2026-05-06 00:35 40.86669 29.69653 14616 ft 308 kts 273°
2026-05-06 00:35 40.86631 29.66875 14496 ft 298 kts 273°
2026-05-06 00:36 40.86539 29.64177 14324 ft 293 kts 266°
2026-05-06 00:36 40.86129 29.61560 14192 ft 290 kts 262°
2026-05-06 00:36 40.85700 29.58964 14024 ft 289 kts 262°
2026-05-06 00:36 40.85280 29.56373 13836 ft 288 kts 262°
2026-05-06 00:37 40.84862 29.53792 13632 ft 287 kts 262°
2026-05-06 00:37 40.84495 29.51209 13450 ft 284 kts 270°
2026-05-06 00:37 40.84413 29.48617 13260 ft 282 kts 273°
2026-05-06 00:37 40.84346 29.46037 13089 ft 281 kts 272°
2026-05-06 00:38 40.84274 29.43459 12909 ft 281 kts 272°
2026-05-06 00:38 40.84198 29.40888 12724 ft 280 kts 272°
2026-05-06 00:38 40.84123 29.38328 12548 ft 279 kts 272°
2026-05-06 00:38 40.84048 29.35774 12368 ft 278 kts 272°
2026-05-06 00:39 40.83974 29.33229 12159 ft 277 kts 273°
2026-05-06 00:39 40.84154 29.30731 11900 ft 271 kts 287°
2026-05-06 00:39 40.84693 29.28327 11467 ft 273 kts 291°
2026-05-06 00:39 40.85260 29.25951 11198 ft 270 kts 291°
2026-05-06 00:40 40.85821 29.23591 10762 ft 269 kts 291°
2026-05-06 00:40 40.86377 29.21253 10259 ft 266 kts 291°
2026-05-06 00:40 40.86926 29.18937 9712 ft 263 kts 291°
2026-05-06 00:40 40.87468 29.16637 9160 ft 261 kts 291°
2026-05-06 00:41 40.88005 29.14357 8626 ft 258 kts 290°
2026-05-06 00:41 40.88530 29.12125 8476 ft 250 kts 290°
2026-05-06 00:41 40.89035 29.09962 8287 ft 236 kts 290°
2026-05-06 00:41 40.89484 29.07933 7980 ft 231 kts 290°
2026-05-06 00:42 40.89975 29.05852 7256 ft 241 kts 290°
2026-05-06 00:42 40.90482 29.03737 6733 ft 242 kts 290°
2026-05-06 00:42 40.90892 29.01588 6233 ft 241 kts 278°
2026-05-06 00:42 40.90811 28.99382 5816 ft 239 kts 259°
2026-05-06 00:43 40.90359 28.97264 5717 ft 240 kts 256°
2026-05-06 00:43 40.89910 28.95142 5590 ft 240 kts 258°
2026-05-06 00:43 40.89467 28.93015 5462 ft 240 kts 259°
2026-05-06 00:43 40.89025 28.90890 5334 ft 240 kts 259°
2026-05-06 00:44 40.88583 28.88768 5208 ft 239 kts 259°
2026-05-06 00:44 40.88141 28.86649 5095 ft 238 kts 259°
2026-05-06 00:44 40.87705 28.84540 4997 ft 237 kts 261°
2026-05-06 00:44 40.87662 28.82414 5003 ft 230 kts 287°
2026-05-06 00:45 40.88319 28.80540 5011 ft 224 kts 311°
2026-05-06 00:45 40.89498 28.79248 5006 ft 220 kts 334°
2026-05-06 00:45 40.90874 28.78362 5015 ft 220 kts 335°
2026-05-06 00:45 40.92256 28.77482 5013 ft 220 kts 335°
2026-05-06 00:46 40.93597 28.76552 5010 ft 221 kts 332°
2026-05-06 00:46 40.94903 28.75541 5007 ft 213 kts 331°
2026-05-06 00:46 40.96163 28.74538 5004 ft 211 kts 330°
2026-05-06 00:46 40.97442 28.73603 5007 ft 209 kts 341°
2026-05-06 00:47 40.98857 28.73300 5008 ft 205 kts 359°
2026-05-06 00:47 41.00277 28.73275 5007 ft 204 kts 359°
2026-05-06 00:47 41.01697 28.73249 5010 ft 204 kts 359°
2026-05-06 00:47 41.03115 28.73222 4861 ft 204 kts 359°
2026-05-06 00:48 41.04531 28.73195 4613 ft 203 kts 359°
2026-05-06 00:48 41.05938 28.73168 4340 ft 200 kts 359°
2026-05-06 00:48 41.07288 28.73142 4085 ft 186 kts 359°
2026-05-06 00:48 41.08550 28.73118 3847 ft 179 kts 359°
2026-05-06 00:49 41.09790 28.73094 3591 ft 178 kts 359°
2026-05-06 00:49 41.11030 28.73070 3348 ft 179 kts 359°
2026-05-06 00:49 41.12273 28.73046 3089 ft 179 kts 359°
2026-05-06 00:49 41.13519 28.73022 2843 ft 178 kts 358°
2026-05-06 00:50 41.14719 28.72999 2608 ft 167 kts 358°
2026-05-06 00:50 41.15862 28.72977 2386 ft 162 kts 358°
2026-05-06 00:50 41.16983 28.72955 2170 ft 160 kts 358°
2026-05-06 00:50 41.18033 28.72935 1965 ft 145 kts 357°
2026-05-06 00:51 41.19024 28.72916 1769 ft 141 kts 357°
2026-05-06 00:51 41.19997 28.72897 1574 ft 139 kts 357°
2026-05-06 00:51 41.20965 28.72878 1385 ft 139 kts 357°
2026-05-06 00:51 41.21928 28.72859 1200 ft 138 kts 358°
2026-05-06 00:52 41.22567 28.72849 1082 ft 139 kts 358°
2026-05-06 00:52 41.23538 28.72830 872 ft 140 kts 358°
2026-05-06 00:52 41.24514 28.72804 698 ft 141 kts 358°
2026-05-06 00:52 41.25500 28.72790 534 ft 142 kts 360°
2026-05-06 00:53 41.26491 28.72774 358 ft 142 kts 358°
2026-05-06 00:53 41.27375 28.72740 330 ft 105 kts 358°
2026-05-06 00:53 41.27891 28.72733 332 ft 37 kts
2026-05-06 00:53 41.28072 28.72835 334 ft 17 kts 29°
2026-05-06 00:54 41.28132 28.72908 333 ft 13 kts 79°
2026-05-06 00:54 41.28061 28.72961 333 ft 14 kts 176°
2026-05-06 00:54 41.27950 28.72968 334 ft 17 kts 177°
2026-05-06 00:54 41.27819 28.72970 334 ft 20 kts 180°
2026-05-06 00:55 41.27667 28.72971 332 ft 23 kts 179°
2026-05-06 00:55 41.27495 28.72976 332 ft 26 kts 179°
2026-05-06 00:55 41.27309 28.72981 331 ft 28 kts 179°
2026-05-06 00:55 41.27103 28.72984 333 ft 31 kts 179°
2026-05-06 00:56 41.26886 28.72986 330 ft 31 kts 180°
2026-05-06 00:56 41.26695 28.72988 333 ft 16 kts 178°
2026-05-06 00:56 41.26591 28.73021 334 ft 13 kts 120°
2026-05-06 00:56 41.26603 28.73108 333 ft 11 kts 73°